PST,Max TemperatureF,Mean TemperatureF,Min TemperatureF,Max Dew PointF,MeanDew PointF,Min DewpointF,Max Humidity, Mean Humidity, Min Humidity, Max Sea Level PressureIn, Mean Sea Level PressureIn, Min Sea Level PressureIn, Max VisibilityMiles, Mean VisibilityMiles, Min VisibilityMiles, Max Wind SpeedMPH, Mean Wind SpeedMPH, Max Gust SpeedMPH,PrecipitationIn, CloudCover, Events, WindDirDegrees
2011-11-1,67,61,55,54,52,16,93,76,58,30.00,29.95,29.92,10,3,1,10,3,28,0.00,6,,188
2011-11-2,83,75,66,7,3,-5,9,7,5,30.12,30.06,29.99,10,10,9,45,27,59,0.00,0,,73
2011-11-3,69,60,51,55,37,8,68,39,10,30.05,29.98,29.90,10,10,10,16,6,20,0.00,3,,192
2011-11-4,64,55,46,52,46,41,80,62,44,29.87,29.81,29.73,10,10,10,21,8,24,T,4,,264
2011-11-5,66,53,40,44,39,33,79,55,31,30.05,29.99,29.88,10,10,10,17,6,,0.00,0,,249
2011-11-6,64,55,46,49,45,39,89,71,52,30.06,30.01,29.95,10,9,2,22,7,26,0.28,5,Rain-Thunderstorm,315
2011-11-7,67,55,42,44,40,37,86,60,34,30.22,30.15,30.06,10,10,10,13,5,17,0.00,0,,345
2011-11-8,68,54,40,42,39,31,76,57,37,30.30,30.25,30.21,10,10,10,12,3,15,0.00,0,,240
2011-11-9,79,62,45,43,25,17,51,31,11,30.26,30.21,30.13,10,10,9,26,14,33,0.00,0,,71
2011-11-10,77,70,62,27,23,20,22,18,13,30.18,30.11,30.02,10,10,9,23,14,29,0.00,0,,81
2011-11-11,71,63,54,51,41,30,72,49,26,30.01,29.91,29.79,10,10,6,20,6,31,0.31,6,Rain,64
2011-11-12,68,61,54,52,47,44,77,65,52,29.87,29.83,29.79,10,9,2,24,11,30,0.32,7,Rain,78
2011-11-13,72,62,51,52,47,43,83,62,41,29.99,29.92,29.86,10,10,10,10,4,15,0.00,0,,269
2011-11-14,65,56,47,54,50,44,86,77,67,30.04,29.98,29.90,10,9,2,14,4,17,0.00,4,,175
2011-11-15,66,59,51,54,51,47,86,72,58,30.12,30.06,30.01,10,8,4,12,3,14,0.00,4,,252
2011-11-16,66,57,47,53,48,43,89,76,63,30.19,30.13,30.08,10,4,0,10,2,13,0.00,2,Fog,48
2011-11-17,72,60,47,54,48,42,83,62,41,30.14,30.05,29.98,10,9,4,9,3,14,0.00,0,,144
2011-11-18,63,58,52,53,50,46,83,75,67,30.01,29.96,29.90,10,9,4,12,6,14,0.00,8,,104
2011-11-19,66,60,53,52,48,46,83,68,52,29.97,29.92,29.88,10,10,10,13,4,16,0.02,4,Rain,143
2011-11-20,57,52,47,52,49,46,89,81,72,30.04,29.96,29.90,10,8,1,18,6,25,0.87,6,Rain,67
2011-11-21,63,54,44,47,44,40,89,72,55,30.31,30.20,30.05,10,10,10,12,3,16,0.00,0,,10
2011-11-22,68,56,43,51,45,39,89,69,48,30.31,30.23,30.13,10,10,10,12,2,14,0.00,0,,284
2011-11-23,67,56,44,52,48,40,86,71,55,30.11,30.03,29.97,10,10,10,22,3,25,0.00,4,,209
2011-11-24,66,60,53,50,48,46,83,68,52,30.14,30.05,29.98,10,10,10,12,5,16,0.00,6,,190
2011-11-25,71,58,45,49,46,42,86,65,44,30.25,30.20,30.14,10,10,10,12,4,14,0.00,0,,256
2011-11-26,85,65,45,45,34,27,80,46,12,30.31,30.26,30.23,10,10,10,28,9,36,0.00,0,,73
2011-11-27,86,71,55,48,35,24,57,34,11,30.30,30.25,30.20,10,10,10,15,7,18,0.00,0,,85
2011-11-28,60,56,51,37,34,30,59,45,32,30.18,30.10,30.05,10,10,10,6,4,,0.00,0,,21
2011-11-29,,,,,,,,,,30.08,30.04,29.99,,,,,,,0.00,,,-1
2011-11-30,65,59,54,55,48,32,86,61,36,30.02,29.91,29.80,10,8,6,13,7,21,0.00,0,,225